Location: Newark
(54.6833°N, 25.2833°E)
Time: 07:32:44
(UTC+00:00)

Tiros 1 despin weight - Pass Details

Date: 20 November 2019
Orbit: 594 x 642 km, 48.2° (Epoch: 12 December)

Event Time Altitude Azimuth Distance (km) Brightness Sun altitude
Rises 11:13:21 0° 210° (SSW) 2,820 ? 14.2°
Reaches altitude 10° 11:16:17 10° 190° (S) 1,923 ? 14.1°
Maximum altitude 11:19:05 17° 150° (SSE) 1,533 ? 13.9°
Drops below altitude 10° 11:21:56 10° 109° (ESE) 1,936 ? 13.8°
Sets 11:24:54 0° 90° (E) 2,849 ? 13.7°
